www.pogodaiklimat.ru

АРХИВ ПОГОДЫ в Нижнем Новгороде

Время (UTC), дата Ветер
(напр.,м/с)
 
Видим.   Явления Облачность Т
(С)
Тd
(С)
f
(%)
Тe
(С)
Тes
(С)
Комфортность P
(гПа)
Po
(гПа)
Тmin
(С)
Tmax
(С)
R
(мм)
S
(см)
15 11.01 З 2-4
{6}
10 км 10/10 200 м
[St]
-5.3 -6.0 95 -10 -10 по сезону 1021.7 1001.4 -5.0
18 11.01 ЮЗ 2-4
{6}
10 км 10/10 200 м
[St]
-7.1 -8.0 93 -12 -12 по сезону 1021.8 1001.4
21 11.01 З 2-5
{6}
10 км 10/10 200 м
[St]
-9.3 -10.5 91 -14 -14 по сезону 1022.4 1001.8
00 12.01 З 1-3
{5}
10 км 10/10 200 м
[St]
-11.8 -13.2 89 -14 -14 по сезону 1022.3 1001.5
03 12.01 ЮЗ 1-2
{5}
4000 м слабый снег 10/10 200 м
[Frnb]
-12.6 -13.6 92 -15 -15 по сезону 1021.9 1001.1 -12.6 0.2 42
06 12.01 Ю 1-2
{3}
4000 м слабый снег 10/10 200 м
[Frnb]
-11.3 -12.7 89 -14 -14 по сезону 1020.5 999.8
09 12.01 Ю 1-3
{5}
4000 м слабый снег 10/10 200 м
[Frnb]
-11.0 -12.3 90 -13 -13 по сезону 1019.7 999.0
12 12.01 Ю 1-4
{5}
4000 м слабый снег 9/6 300 м
[Frnb Ac trans]
-11.8 -13.1 90 -14 -14 по сезону 1018.8 998.0
15 12.01 Ю 2-4
{4}
4000 м слабый снег 10/10 300 м
[Frnb]
-13.0 -14.3 90 -18 -18 холодно 1017.5 996.8 -10.8 0.4
18 12.01 ЮВ 2-4
{6}
4000 м слабый снег 10/10 300 м
[Frnb]
-12.3 -13.6 90 -17 -17 прохладно 1015.4 994.7
21 12.01 ЮВ 3-6
{6}
4000 м слабый снег 10/10 300 м
[Frnb]
-9.9 -11.1 91 -16 -16 прохладно 1012.8 992.4
00 13.01 ЮВ 3-6
{9}
10 км в посл. час снег 10/5 300 м
[Sc As op]
-5.7 -6.8 92 -11 -11 по сезону 1011.6 991.5
03 13.01 ЮВ 3-7
{9}
10 км 10/10 300 м
[Sc]
-5.3 -6.7 90 -11 -11 по сезону 1011.5 991.5 -13.0 0.3 42
06 13.01 ЮВ 2-7
{9}
10 км 10/10 300 м
[Frnb]
-5.2 -6.6 90 -10 -10 по сезону 1012.8 992.7
09 13.01 ЮВ 3-6
{7}
10 км слабый снег 10/10 200 м
[Frnb]
-4.7 -5.7 93 -10 -10 по сезону 1012.8 992.7
12 13.01 ЮВ 2-6
{6}
10 км слабый снег 10/10 200 м
[Frnb]
-3.0 -4.3 91 -7 -7 по сезону 1013.2 993.2
15 13.01 ЮВ 3-7
{7}
4000 м слабая переохл. морось (гололёд) {снег} 10/10 200 м
[St]
-2.2 -2.8 96 -7 -7 по сезону 1013.4 993.5 -2.2 0.1
18 13.01 ЮВ 2-4
{7}
10 км {снег, морось} 10/10 200 м
[St]
-1.3 -2.3 93 -5 -5 тепло 1013.1 993.3
21 13.01 ЮВ 2-5
{7}
10 км 10/10 300 м
[St]
-1.4 -3.4 86 -5 -5 тепло 1014.0 994.2
00 14.01 Ю 2-6
{8}
2000 м снег 10/10 200 м
[Frnb]
-2.8 -3.5 95 -7 -7 по сезону 1014.5 994.6
03 14.01 Ю 2-4
{7}
4000 м слабый снег 10/10 200 м
[Frnb]
-2.5 -3.1 96 -7 -7 по сезону 1016.3 996.4 -2.8 2 43
06 14.01 Ю 3-7
{8}
10 км {снег} 10/10 300 м
[Frnb]
-3.8 -5.6 87 -9 -9 по сезону 1018.5 998.4 -3.8
09 14.01 Ю 3-6
{7}
10 км 10/8 600 м
[Sc As op]
-4.3 -7.0 81 -10 -10 по сезону 1020.1 999.9
12 14.01 Ю 2-5
{6}
10 км 10/6 600 м
[Sc Ci fib]
-4.3 -7.4 79 -8 -8 по сезону 1021.4 1001.2
15 14.01 ЮВ 1-4
{8}
10 км 8/6 300 м
[Sc Ci fib]
-5.6 -7.8 84 -8 -8 по сезону 1021.7 1001.4 -2.5
18 14.01 Ю 2-3
{5}
10 км 10/9 300 м
[Sc Ci fib]
-5.0 -7.4 83 -9 -9 по сезону 1022.2 1002.0
21 14.01 Ю 1-3
{9}
10 км 10/8 300 м
[Sc As op]
-4.1 -6.4 84 -6 -6 тепло 1022.2 1002.0
00 15.01 Ю 1-3
{8}
10 км 10/8 300 м
[Sc As op]
-3.1 -5.9 81 -5 -5 тепло 1022.1 1002.0
03 15.01 Ю 3-7
{9}
10 км 8/8 300 м
[St]
-2.8 -5.8 80 -8 -8 по сезону 1021.0 1001.0 -5.9 43
06 15.01 Ю 4-6
{11}
10 км 10/8 300 м
[St Ci fib]
-3.3 -6.1 81 -9 -9 по сезону 1021.6 1001.5
09 15.01 ЮВ 3-9
{11}
10 км 10/8 300 м
[Sc Ac As]
-3.2 -5.3 85 -8 -8 по сезону 1021.8 1001.8
12 15.01 ЮВ 4-9
{11}
10 км 10/10 300 м
[Sc]
-4.6 -6.6 86 -11 -11 по сезону 1022.1 1001.9
15 15.01 ЮВ 3-8
{11}
10 км 10/10 300 м
[Sc]
-6.0 -8.3 84 -12 -12 по сезону 1023.3 1002.9 -2.8
18 15.01 ЮВ 2-5
{8}
10 км 10/10 300 м
[Sc]
-6.4 -8.0 88 -11 -11 по сезону 1023.4 1003.0
21 15.01 ЮВ 2-5
{7}
10 км 10/10 300 м
[Sc]
-5.5 -7.3 87 -10 -10 по сезону 1023.8 1003.4
00 16.01 ЮВ 3-5
{7}
10 км 10/10 300 м
[St]
-6.9 -8.5 88 -13 -13 по сезону 1024.3 1003.9
03 16.01 ЮВ 3-7
{7}
10 км 10/10 300 м
[St]
-8.2 -10.1 86 -14 -14 по сезону 1024.4 1003.8 -8.2 43
06 16.01 Ю 3-6
{7}
10 км 10/10 300 м
[St]
-8.3 -9.7 90 -14 -14 по сезону 1025.5 1004.9 -8.5
09 16.01 ЮВ 2-5
{6}
4000 м слабый снег 10/10 300 м
[Frnb]
-6.7 -8.3 88 -11 -11 по сезону 1026.3 1005.9
12 16.01 ЮВ 2-4
{5}
4000 м слабый снег 10/10 300 м
[Frnb]
-6.6 -8.2 88 -11 -11 по сезону 1027.0 1006.6
15 16.01 ЮВ 2-4
{5}
4000 м слабый снег 10/10 300 м
[Frnb]
-7.1 -8.4 90 -12 -12 по сезону 1027.7 1007.2 -6.6 2
18 16.01 ЮВ 1-3
{4}
10 км слабый снег 10/10 300 м
[Frnb]
-7.3 -8.6 90 -10 -10 по сезону 1028.4 1007.8
21 16.01 ЮВ 1-2
{3}
4000 м слабый снег 10/10 300 м
[Frnb]
-7.4 -8.7 90 -10 -10 по сезону 1028.7 1008.1
00 17.01 В 1-3
{3}
4000 м слабый снег 10/10 300 м
[Frnb]
-7.9 -9.3 90 -10 -10 по сезону 1029.4 1008.7
03 17.01 В 1-3
{3}
4000 м слабый снег 10/10 300 м
[Frnb]
-8.7 -10.2 89 -11 -11 по сезону 1029.0 1008.3 -8.8 4 46
06 17.01 В 2-3
{4}
4000 м слабый снег 10/10 300 м
[Frnb]
-9.1 -10.6 89 -14 -14 по сезону 1029.3 1008.5 -9.2
09 17.01 В 1-2
{4}
10 км слабый снег 10/6 300 м
[Sc As op]
-9.0 -11.0 85 -11 -11 по сезону 1029.5 1008.8
12 17.01 В 1-2
{3}
10 км слабый снег 10/4 300 м
[Sc Ac trans Cs]
-8.8 -11.2 83 -11 -11 по сезону 1029.7 1009.0
15 17.01 штиль 0
{3}
10 км слабый снег 10/4 300 м
[Sc Cs]
-10.3 -12.3 85 -11 -11 по сезону 1030.1 1009.3 -8.6 4
18 17.01 З 1-1
{2}
10 км слабый снег 10/6 300 м
[Sc As op]
-10.1 -11.4 90 -12 -12 по сезону 1029.9 1009.1
21 17.01 штиль 0
{2}
10 км слабый снег 10/8 300 м
[Sc As op]
-10.2 -11.5 90 -11 -11 по сезону 1030.1 1009.3
00 18.01 З 1-2
{3}
4000 м слабый снег 10/10 300 м
[Sc]
-10.8 -12.1 90 -13 -13 по сезону 1030.3 1009.5
03 18.01 СЗ 1-2
{3}
10 км слабый снег 10/10 300 м
[Sc]
-8.6 -9.7 92 -11 -11 по сезону 1030.0 1009.3 -11.3 1 48
06 18.01 СЗ 1-2
{3}
10 км слабый снег 10/10 300 м
[Sc]
-8.6 -9.7 92 -11 -11 по сезону 1030.0 1009.3 -11.3 1 48
09 18.01 З 2-4
{5}
10 км 9/8 300 м
[Sc Ac trans]
-7.2 -8.5 90 -12 -11 по сезону 1030.7 1010.1
12 18.01 СЗ 2-5
{7}
10 км в посл. час снег 8/5 300 м
[Sc Ac trans]
-7.0 -10.3 77 -11 -11 по сезону 1030.5 1009.9

 

Местоположение метеостанции Нижний Новгород (Нижегородская область, Россия): широта 56.27 долгота 44.00 высота над уровнем моря 157 м.

В архиве по умолчанию представлена погода в Нижнем Новгороде за последнюю неделю. Архивные данные за месяц целиком и за предыдущие месяцы, начиная с января 2011 года, Вы можете получить, выбрав интересующий диапазон дат из раскрывающегося списка и нажав кнопку "Ввод!".

Внимание! Время в таблицах - всемирное. Для получения местного времени необходимо прибавить поправку, которая в Нижнем Новгороде равна 3 ч.

Ветер - указаны скорость ветра в м/с - средняя за 10 мин, порывы в срок и между сроками (в фигурных скобках) и направление, откуда дует ветер: С - северный, СВ - северо-восточный, В - восточный, ЮВ - юго-восточный, Ю - южный, ЮЗ - юго-западный, З - западный, СЗ - северо-западный.
Видимость - горизонтальная дальность видимости в метрах или километрах. При видимости от 1 до 10 км при отсутствии осадков обычно наблюдается дымка, при ухудшении видимости до 1 км и менее - туман. В сухую погоду видимость может ухудшаться дымом, пылью или мглою.
Явления - указаны атмосферные явления, наблюдавшиеся в срок или в последний час перед сроком; фигурными скобками обозначены явления, наблюдавшиеся между сроками (за 1-3 часа до срока); квадратными скобками обозначены град или гололедные отложения с указанием их диаметра в мм.
Облачность - указаны через наклонную черту общая и нижняя облачность в баллах и высота нижней границы облаков в метрах; квадратными скобками обозначены формы облаков: Ci - перистые, Cs - перисто-слоистые, Cc - перисто-кучевые, Ac - высококучевые, As - высокослоистые, Sc - слоисто-кучевые, Ns - слоисто-дождевые, Cu - кучевые, Cb - кучево-дождевые. Подробнее классификацию облаков см. в Атласе облаков (PDF).
T - Температура воздуха - температура, измеренная на высоте 2 м над землей.
Td - Температура точки росы - температура, при понижении до которой содержащийся в воздухе водяной пар достигнет насыщения.
f - Относительная влажность воздуха - влажноcть воздуха, измеренная на высоте 2 м над землей.
Te - Эффективная температура - температура, которую ощущает одетый по сезону человек в тени. Характеристика душности погоды. При расчете учитывается влияние влажности воздуха и скорости ветра на теплоощущения человека.
Tes - Эффективная температура на солнце - температура, которую ощущает человек, с поправкой на солнечный нагрев. Характеристика знойности погоды. Зависит от высоты солнца над горизонтом, облачности и скорости ветра. Ночью, в пасмурную погоду, а также при ветре 12 м/с и более поправка равна нулю.
P - Атмосферное давление - приведенное к уровню моря атмосферное давление.
Po - Атмосферное давление - измеренное на уровне метеостанции атмосферное давление.
Tmin - Минимальная температура - минимум температуры воздуха на высоте 2 м над землей.
Tmax - Максимальная температура - максимум температуры воздуха на высоте 2 м над землей.
R - Количество осадков - Количество выпавших осадков, мм. При наведении курсора мыши на число - период времени, за который выпало указанное количество осадков.
S - Снежный покров - Высота снежного покрова, см. При наведении курсора мыши на число - состояние снежного покрова и степень покрытия местности в баллах.